Weather History for Chetumal, Mexico

Change the Weather History Date:

Thursday, January 3, 2013

  Actual Average Record
Temperature  
Mean Temperature 84 °F -  
Max Temperature 90 °F 80 °F 90 °F (2013)
Min Temperature 77 °F 67 °F 60 °F (2008)
Cooling Degree Days 18    
Growing Degree Days 34 (Base 50)    
Moisture  
Dew Point 74 °F    
Average Humidity 76    
Maximum Humidity 93    
Minimum Humidity 50    
Precipitation  
Precipitation 0.24 in - - ()
Sea Level Pressure  
Sea Level Pressure 29.99 in    
Wind  
Wind Speed 4 mph ()    
Max Wind Speed 12 mph    
Max Gust Speed -    
Visibility 6.5 miles    
Events      
Averages and records for this station are not official NWS values.
T = Trace of Precipitation, MM = Missing Value Source: Averaged Metar Reports

Daily Weather History Graph

Daily Weather History Graph

Search for Another Location

Airport:

Trip Planner

Search our weather history database for the weather conditions in past years. The results will help you decide how hot, cold, wet, or windy it might be!

Date:

Astronomy

Jan. 03, 2013 Rise Set
Actual Time 6:26 AM CST 5:29 PM CST
Civil Twilight 6:02 AM CST 5:53 PM CST
Nautical Twilight 5:35 AM CST 6:20 PM CST
Astronomical Twilight 5:08 AM CST 6:47 PM CST
Moon 11:05 PM CST (1/3) 10:31 AM CST (1/3)
Length of Visible Light 11h 50m
Length of Day
11h 03m
Waning Gibbous, 65% of the Moon is Illuminated
Jan 3
Waning Gibbous
Jan 4
Last Quarter
Jan 11
New
Jan 18
First Quarter
Jan 26
Full

Hourly Weather History & Observations

Time (CST) Temp. Heat Index Dew Point Humidity Pressure Visibility Wind Dir Wind Speed Gust Speed Precip Events Conditions
2:50 AM 76 °F - 73 °F 86% 29.96 in 5 mi NW 2.2 mph - -   Partly Cloudy
5:50 AM 74 °F - 72 °F 93% 29.98 in 5 mi NNW 2.2 mph - -   Mostly Cloudy
6:00 AM 77.0 °F - 73.4 °F 89% 29.99 in 7.0 mi Calm Calm - N/A   Mostly Cloudy
6:43 AM 78.8 °F - 73.4 °F 83% 29.98 in 7.0 mi Calm Calm - N/A   Mostly Cloudy
7:43 AM 80.6 °F 85.4 °F 73.4 °F 79% 30.00 in 7.0 mi Calm Calm - N/A   Mostly Cloudy
8:43 AM 80.6 °F 85.4 °F 73.4 °F 79% 30.04 in 7.0 mi Calm Calm - N/A   Mostly Cloudy
8:50 AM 79 °F - 73 °F 78% 30.04 in 6 mi NNW 4.5 mph - -   Mostly Cloudy
9:43 AM 82.4 °F 88.2 °F 73.4 °F 74% 30.03 in 7.0 mi Calm Calm - N/A   Mostly Cloudy
10:43 AM 82.4 °F 88.2 °F 73.4 °F 74% 30.01 in 7.0 mi East 11.5 mph - N/A   Mostly Cloudy
11:43 AM 84.2 °F 94.1 °F 77.0 °F 79% 29.98 in 7.0 mi East 11.5 mph - N/A   Mostly Cloudy
11:50 AM 86 °F - 74 °F 60% 30.00 in 6 mi ESE 6.7 mph - -   Partly Cloudy
12:43 PM 84.2 °F 94.1 °F 77.0 °F 79% 29.95 in 7.0 mi ESE 11.5 mph - N/A   Mostly Cloudy
1:43 PM 86.0 °F 96.9 °F 77.0 °F 74% 29.94 in 7.0 mi ESE 11.5 mph - N/A   Mostly Cloudy
2:45 PM 84.2 °F 94.1 °F 77.0 °F 79% 29.91 in 7.0 mi East 11.5 mph - N/A   Mostly Cloudy
2:50 PM 89 °F - 73 °F 50% 29.94 in 6 mi SE 6.7 mph - -   Scattered Clouds
3:43 PM 84.2 °F 94.1 °F 77.0 °F 79% 29.94 in 7.0 mi East 9.2 mph - N/A   Mostly Cloudy
4:43 PM 82.4 °F 89.5 °F 75.2 °F 79% 29.95 in 7.0 mi East 6.9 mph - N/A   Mostly Cloudy
5:40 PM 80.6 °F 84.6 °F 71.6 °F 74% 29.98 in 7.0 mi East 6.9 mph - N/A   Mostly Cloudy
5:50 PM 82 °F - 73 °F 67% 29.99 in 6 mi ENE 6.7 mph - -   Partly Cloudy
6:45 PM 80.6 °F 84.6 °F 71.6 °F 74% 30.00 in 7.0 mi East 9.2 mph - N/A   Mostly Cloudy
7:40 PM 80.6 °F 84.6 °F 71.6 °F 74% 30.02 in 7.0 mi East 6.9 mph - N/A   Mostly Cloudy
8:40 PM 80.6 °F 84.6 °F 71.6 °F 74% 30.03 in 7.0 mi East 6.9 mph - N/A   Mostly Cloudy
8:45 PM 80.6 °F 84.6 °F 71.6 °F 74% 30.03 in 7.0 mi East 6.9 mph - N/A   Mostly Cloudy
8:50 PM 80 °F - 74 °F 76% 30.04 in 5 mi ENE 4.5 mph - -   Scattered Clouds
11:50 PM 79 °F - 74 °F 79% 30.04 in 5 mi East 4.5 mph - -   Partly Cloudy